TIME,DELAY(SENSOR),PRES,OXYGEN,RAWTEMP,T(OPTODE),TCPHASE,FLUOR,BETA(BETA700),BETA(BETA412),BETA(BETA440),CDOM,C(CSC),ED(ED412.20),ED(ED444.00),ED(ED489.60),ED(ED554.30),LU(LU412.10),LU(LU443.90),LU(LU489.70),LU(LU554.70),COMP,TILTX,TILTY,CHECK
1348371203,5812,902.9699707031250000,32.4233512878418000,557.7487792968750000,4.5556449890136720,56.6725883483886700,55,100,101,79,84,15565,0,0,0,0,2147123803,2147775104,2147572772,2147573412,1083,3,13,53117
1348374799,5808,970.9600219726562000,40.0699996948242200,563.8621215820312000,4.3661417961120605,55.5433883666992200,55,100,99,77,83,15563,0,0,0,0,2147124946,2147780461,2147570651,2147571565,3416,3,13,7523
1348378399,5808,983.5200195312500000,40.1027488708496100,565.3041992187500000,4.3213920593261720,55.5496292114257800,55,99,101,77,82,15560,0,0,0,0,2147123638,2147779017,2147571300,2147566756,195,3,13,13920
1348381999,5809,983.9899902343750000,39.9408798217773440,566.6652221679688000,4.2791461944580080,55.5870094299316400,56,99,101,79,82,15562,0,0,0,0,2147121773,2147770989,2147570624,2147569088,3237,3,13,41339
1348385599,5809,990.8300170898438000,39.8773803710937500,566.8720703125000000,4.2727217674255370,55.6023902893066400,55,98,100,76,82,15560,0,0,0,0,2147123099,2147774957,2147577856,2147570176,3567,3,13,30912
1348389199,5810,991.5999755859375000,40.1787109375000000,567.5120239257812000,4.2528510093688965,55.5632095336914060,55,99,100,78,81,15553,0,0,0,0,2147121974,2147776402,2147573028,2147570706,95,3,13,33344
1348392799,5810,990.7800292968750000,40.2413902282714840,567.6967163085938000,4.2471141815185550,55.5558891296386700,55,99,101,77,82,15558,0,0,0,0,2147127506,2147773101,2147570441,2147570578,3368,3,13,21162
1348396399,5809,993.6400146484375000,40.1763801574707000,568.2786254882812000,4.2290420532226560,55.5685882568359400,55,97,100,78,82,15555,0,0,0,0,2147122185,2147773504,2147574390,2147567890,191,3,13,23467
1348399999,5809,993.9299926757812000,40.2104492187500000,568.2034301757812000,4.2313771247863770,55.5637817382812500,55,99,100,78,84,15557,0,0,0,0,2147124772,2147775204,2147572379,2147572589,190,3,13,30166
1348403599,5813,995.5499877929688000,40.0207099914550800,567.8853149414062000,4.2412590980529785,55.5889282226562500,56,99,100,78,83,15556,0,0,0,0,2147126610,2147771748,2147573440,2147571017,3466,3,13,54848
1348407199,5810,999.7199707031250000,39.8576316833496100,568.1193237304688000,4.2339901924133300,55.6150093078613300,55,98,101,78,82,15554,0,0,0,0,2147121709,2147777618,2147577545,2147571657,162,3,13,53688
1348410799,5808,1004.7000122070312000,39.8484802246093750,567.9468994140625000,4.2393441200256350,55.6177902221679700,55,98,101,78,81,15554,0,0,0,0,2147123382,2147780288,2147572333,2147569782,259,3,13,4958
1348414399,5810,1002.0999755859375000,39.6549606323242200,567.3201293945312000,4.2588100433349610,55.6395416259765600,55,101,101,79,82,15542,0,0,0,0,2147125120,2147767972,2147572626,2147569700,178,3,13,25886
1348417999,5809,1000.2199707031250000,39.5547790527343750,567.6303710937500000,4.2491722106933590,55.6533699035644500,54,98,99,78,82,15540,0,0,0,0,2147123090,2147774189,2147571611,2147572937,3477,3,13,45824
1348421599,5809,996.1699829101562000,39.3927803039550800,568.2841796875000000,4.2288670539855960,55.6858215332031250,55,99,101,77,81,15539,0,0,0,0,2147121645,2147774555,2147577033,2147568027,3556,3,13,182
1348425199,5808,995.0100097656250000,39.8275985717773440,568.7600708007812000,4.2140870094299320,55.6268882751464840,56,102,100,77,82,15536,0,0,0,0,2147122477,2147774656,2147572059,2147571072,3585,3,13,8379
1348428799,5809,996.1300048828125000,40.0451087951660160,568.7864990234375000,4.2132639884948730,55.5964889526367200,55,98,100,79,82,15540,0,0,0,0,2147123739,2147777828,2147570953,2147572050,5,3,13,24338
1348432399,5810,998.4500122070312000,40.2627792358398440,568.7175903320312000,4.2154059410095215,55.5671195983886700,55,97,100,78,81,15534,0,0,0,0,2147123556,2147773860,2147571794,2147569417,122,3,13,28413
1348435999,5808,998.8599853515625000,39.8262214660644500,568.5261840820312000,4.2213521003723145,55.6225090026855500,54,98,102,78,83,15539,0,0,0,0,2147123776,2147775241,2147576603,2147573056,3502,3,13,21646
1348439599,5810,1002.1799926757812000,39.5915985107421900,568.3649902343750000,4.2263579368591310,55.6562614440918000,55,102,100,78,83,15539,0,0,0,0,2147121499,2147779062,2147576457,2147568448,467,3,13,31498
1348443199,5808,1006.4899902343750000,40.0709495544433600,567.8801269531250000,4.2414188385009770,55.5828208923339840,54,100,100,79,82,15535,0,0,0,0,2147122322,2147774912,2147570587,2147570212,205,3,13,47127
1348446799,5810,1009.2500000000000000,39.8758392333984400,567.7536010742188000,4.2453479766845700,55.6087608337402340,56,98,100,78,84,15537,0,0,0,0,2147124004,2147776228,2147574592,2147569526,3145,3,13,27970
1348450399,5809,1007.8900146484375000,39.5053901672363300,567.4976806640625000,4.2532939910888670,55.6590614318847660,56,99,99,78,82,15535,0,0,0,0,2147125449,2147776621,2147572352,2147570605,3590,3,13,51597
1348453999,5809,1008.7299804687500000,39.3205986022949200,567.0172729492188000,4.2682108879089355,55.6889610290527340,55,97,100,78,82,15535,0,0,0,0,2147123446,2147777764,2147569389,2147569225,3233,3,13,34530
1348457599,5809,1006.7500000000000000,38.9671516418457000,567.3897094726562000,4.2566471099853520,55.7462081909179700,55,104,100,77,83,15537,0,0,0,0,2147122413,2147773284,2147570020,2147570459,3568,3,13,1407
1348461199,5810,1005.7700195312500000,39.6181488037109400,567.8859252929688000,4.2412381172180180,55.6510696411132800,55,98,101,78,82,15535,0,0,0,0,2147123181,2147781394,2147572562,2147569664,193,3,13,52803
1348464799,5808,1007.3900146484375000,39.7652091979980500,567.8590698242188000,4.2420687675476070,55.6275711059570300,55,99,100,77,83,15536,0,0,0,0,2147123456,2147775497,2147572964,2147572562,274,3,13,51185
1348468399,5810,998.8099975585938000,39.5818786621093750,568.3961181640625000,4.2253928184509280,55.6644401550293000,54,98,100,79,82,15536,0,0,0,0,2147122523,2147772690,2147570148,2147569197,3271,3,13,18054
1348471999,5808,1005.5300292968750000,39.9405899047851560,568.2584838867188000,4.2296662330627440,55.6092605590820300,55,98,111,77,82,15535,0,0,0,0,2147126107,2147774829,2147575451,2147569078,3522,3,13,44547
1348475599,5810,1004.7500000000000000,39.5053291320800800,568.2874755859375000,4.2287650108337400,55.6694984436035160,55,98,100,78,83,15534,0,0,0,0,2147121709,2147775844,2147574473,2147568530,3567,3,13,38125
1348479199,5811,1003.9000244140625000,39.2872314453125000,569.0037231445312000,4.2065181732177730,55.7133407592773440,54,99,102,77,83,15533,0,0,0,0,2147120640,2147775616,2147572105,2147569645,3560,3,13,12521
1348482799,5808,1006.1699829101562000,40.3086395263671900,568.9572143554688000,4.2079639434814450,55.5596389770507800,54,99,101,79,83,15533,0,0,0,0,2147124937,2147772480,2147576036,2147569389,250,3,13,29031
1348486399,5809,1005.7399902343750000,40.2108383178710940,568.1663208007812000,4.2325310707092285,55.5680885314941400,55,100,101,78,83,15534,0,0,0,0,2147122797,2147775424,2147575634,2147569792,142,3,13,63670
1348489999,5807,1004.3900146484375000,39.9388999938964840,568.4285278320312000,4.2243838310241700,55.6095199584960940,55,100,101,78,83,15529,0,0,0,0,2147122496,2147775259,2147571465,2147570176,3096,3,13,64364
1348493599,5810,1003.7199707031250000,39.9137611389160160,569.6234130859375000,4.1872649192810060,55.6257896423339840,56,99,102,78,82,15533,0,0,0,0,2147124160,2147771821,2147572306,2147572717,3585,3,13,14415
1348497199,5809,1006.6400146484375000,40.2631416320800800,569.5975952148438000,4.1880650520324710,55.5734291076660160,55,98,101,78,83,15534,0,0,0,0,2147125476,2147781540,2147571840,2147568374,500,3,13,59516
1348500799,5811,1005.3599853515625000,40.3032188415527340,569.5122070312500000,4.1907181739807130,55.5657310485839840,55,99,101,78,82,15533,0,0,0,0,2147124004,2147775232,2147571867,2147567981,2911,3,13,61828
1348504399,5810,1012.1500244140625000,40.3078804016113300,568.6987304687500000,4.2159938812255860,55.5538787841796900,55,98,100,77,83,15528,0,0,0,0,2147118802,2147775424,2147575689,2147567442,4,3,13,28993
1348507999,5811,1007.6799926757812000,39.9718093872070300,568.7683105468750000,4.2138309478759770,55.6040611267089840,55,100,100,78,82,15530,0,0,0,0,2147121782,2147776329,2147570514,2147570413,3571,3,13,15085
1348511599,5811,1014.3900146484375000,39.9087982177734400,568.8079833984375000,4.2125949859619140,55.6208305358886700,55,100,100,79,83,15530,0,0,0,0,2147122084,2147777298,2147569837,2147569060,367,3,12,5868
1348514756,5809,1009.0300292968750000,39.4679908752441400,568.7277221679688000,4.2150921821594240,55.6830711364746100,55,98,101,78,81,15514,0,0,0,0,2147122130,2147778541,2147574454,2147568841,462,3,13,39440
